Regional Weather Roundup
Issued by NWS

Home | Current Version | Previous Version | Text Only | Print | Product List | Glossary On
Versions: 1 2 3 4 5 6 7 8 9 10 11 12 13 14 15 16 17 18 19 20 21 22 23 24 25 26 27 28 29 30 31 32 33 34 35 36 37 38 39 40 41 42 43 44 45 46 47 48 49 50
000
ASUS43 KMKX 202210
RWRWI

WISCONSIN REGIONAL WEATHER ROUNDUP
NATIONAL WEATHER SERVICE MILWAUKEE/SULLIVAN WI
400 PM CST SAT JAN 20 2018

NOTE: "FAIR" INDICATES FEW OR NO CLOUDS BELOW 12,000 FEET WITH NO
SIGNIFICANT WEATHER AND/OR OBSTRUCTIONS TO VISIBILITY.

WIZ001-002-006>008-014>016-023>028-202300-
NORTHWEST WISCONSIN

CITY           SKY/WX    TMP DP  RH WIND       PRES   REMARKS
SUPERIOR ARPT  FAIR      41  29  64 W6        29.84R
ASHLAND        FAIR      40  30  67 SW8       29.85R WCI  34
HAYWARD        CLOUDY    39  29  67 S6        29.86R WCI  35
SIREN          FAIR      38  30  74 SW6       29.87S WCI  33
CUMBERLAND     CLOUDY    36  30  80 SW6       29.87R WCI  31
RICE LAKE      CLOUDY    38  32  79 S6        29.89R WCI  33
CHETEK         CLOUDY    37  30  75 CALM      29.88R
LADYSMITH      CLOUDY    38  32  77 S3        29.88S
EAU CLAIRE     CLOUDY    39  31  72 CALM      29.89R
MENOMONIE      CLOUDY    38  32  78 SE3       29.89S
NEW RICHMOND   CLOUDY    37  30  75 S6        29.88S WCI  33
OSCEOLA        CLOUDY    38  32  77 CALM      29.92R
$$

WIZ003>005-009-010-017-018-202300-
NORTH CENTRAL WISCONSIN

CITY           SKY/WX    TMP DP  RH WIND       PRES   REMARKS
MANITOWISH WTR FAIR      35  32  88 S3        29.85R
ARBOR VITAE    CLOUDY    37  32  84 S5        29.85R WCI  33
WOODRUFF       CLOUDY    37  32  84 S5        29.85R WCI  33
RHINELANDER    CLOUDY    36  31  82 CALM      29.86S
EAGLE RIVER    MOCLDY    36  30  79 CALM      29.84S
LAND O LAKES   FAIR      37  31  80 SW3       29.86R
PHILLIPS       CLOUDY    37  31  82 S5        29.85S WCI  33
TOMAHAWK       CLOUDY    35  30  82 CALM      29.87R
MEDFORD        CLOUDY    35  30  82 S3        29.87R
MERRILL        CLOUDY    39  31  73 CALM      29.88R
$$

WIZ029-030-035-036-043>047-202300-
CENTRAL WISCONSIN

CITY           SKY/WX    TMP DP  RH WIND       PRES   REMARKS
WAUSAU         MOCLDY    39  30  70 CALM      29.87R
MOSINEE        CLOUDY    37  30  75 S5        29.89R WCI  34
MARSHFIELD     FAIR      39  31  72 CALM      29.87S
STEVENS POINT  FAIR      38  30  72 S3        29.90S
WAUPACA        FAIR      42  32  69 CALM      29.91S
WAUTOMA        FAIR      42  30  62 CALM      29.92R
WISC RAPIDS    FAIR      40  28  62 CALM      29.91R
CAMP DOUGLAS   MOCLDY    43  32  65 SE3       29.89R
$$

WIZ011>013-019>022-031-037>040-048>050-202300-
NORTHEAST WISCONSIN

CITY           SKY/WX    TMP DP  RH WIND       PRES   REMARKS
ANTIGO         MOCLDY    35  31  84 CALM      29.87S
SHAWANO        MOCLDY    44  31  60 CALM      29.90S
OCONTO         CLOUDY    38  31  73 SE5       29.90F WCI  35
STURGEON BAY   MOCLDY    40  29  64 CALM      29.92R
GREEN BAY      FAIR      39  31  72 S3        29.92R
MANITOWOC      FAIR      39  31  72 CALM      29.94R
APPLETON       MOCLDY    39  30  70 CALM      29.89R
CLINTONVILLE   FAIR      37  30  75 S5        29.90S WCI  34
OSHKOSH        FAIR      40  32  73 NE3       29.91R
$$

WIZ032>034-041-042-053>061-202300-
SOUTHWEST WISCONSIN

CITY           SKY/WX    TMP DP  RH WIND       PRES   REMARKS
LA CROSSE      FAIR      40  32  73 CALM      29.89F
SPARTA         FAIR      42  33  69 CALM      29.90S
VIROQUA        FAIR      41  35  78 CALM      29.88S
BOSCOBEL       FAIR      52  33  48 NE3       29.89R
PRAIRIE DU CHI FAIR      49  31  50 CALM      29.88S
PLATTEVILLE    FAIR      45  36  69 SE5       29.89F
$$

WIZ056-057-062-063-064-067-068-202300-
SOUTH CENTRAL WISCONSIN

CITY           SKY/WX    TMP DP  RH WIND       PRES   REMARKS
REEDSBURG      FAIR      47  32  56 CALM      29.89S
BARABOO/DELLS  FAIR      46  31  56 NE3       29.89S
LONE ROCK      FAIR      49  34  56 CALM      29.89S
MINERAL POINT  FAIR      46  37  71 S3        29.89S
MADISON        FAIR      47  32  56 S5        29.91R
MIDDLETON      FAIR      48  32  53 SE6       29.90S
WATERTOWN      FAIR      46  32  60 CALM      29.91R
MONROE         FAIR      43  32  65 SE3       29.91R
JANESVILLE     CLEAR     45  32  61 S5        29.91R
$$

WIZ051-052-058>065-066-070>072-202300-
SOUTHEAST WISCONSIN

CITY           SKY/WX    TMP DP  RH WIND       PRES   REMARKS
MILWAUKEE      MOCLDY    43  32  65 E5        29.92R
WAUKESHA       CLEAR     46  30  53 CALM      29.92R
MILWAUKEE/TIMM CLEAR     46  27  46 E8        29.92R
RACINE         FAIR      46  32  58 SW6       29.94R
BURLINGTON     FAIR      43  31  62 W6        29.93R
KENOSHA        FAIR      45  32  60 SW8       29.93R
FOND DU LAC    FAIR      42  30  62 S3        29.91R
SHEBOYGAN      FAIR      40  33  76 S3        29.92R
WEST BEND      FAIR      45  32  61 SE6       29.91S
JUNEAU         FAIR      41  33  72 CALM      29.92S
$$

LSZ147-162-202300-
LAKE SUPERIOR

STATION/POSITION TIME  TEMP    WIND        PRES    WAVE
                       AIR SEA DIR/SP/G            HT/PER
                 (UTC) (F)     (DEG/KT/KT) (MB)    (FT/S)
DEVILS ISLAND    2200   38     190/  6/  7 1010.8R
SAXON HARBOR     2140   43     200/  4/  7 1009.8S
$$

LMZ867-665-643>646-202300-
LAKE MICHIGAN

STATION/POSITION TIME  TEMP    WIND        PRES    WAVE
                       AIR SEA DIR/SP/G            HT/PER
                 (UTC) (F)     (DEG/KT/KT) (MB)    (FT/S)
NORTHPORT PIER   2140   35        CALM     1012.9R
KEWAUNEE LAKESHO 2148   36     180/  9/  9 1012.5R
SHEBOYGAN LAKESH 2200   39     180/  6/  6 1013.7R
PORT WASHINGTON  2130   38      CALM  /  2 1014.2R
MILWAUKEE LAKESH 2150   37      CALM  /  1   N/A
KENOSHA   LAKESH 2200   46     250/  8/  9 1013.9
$$

TC  - TEMPERATURE IN CELSIUS
VSB - VISIBILITY IN STATUTE MILES
WCI - WIND CHILL INDEX
HX  - HEAT INDEX





USA.gov is the U.S. government's official web portal to all federal, state and local government web resources and services.